Flag for Poland Weather past 2 weeks in Jastrzębie Zdrój, Poland

Now
47 °F

Light rain. Overcast.


Feels Like: N/A
Forecast: 40 / 48 °F
Wind: N/A

Location: Ostrava / Mosnov

Current Time: Mar 27, 2015 at 4:46:02 AM

Latest Report: Mar 27, 2015 at 3:00 AM


Visibility: 7 mi

Pressure: 29.75 "Hg

Humidity: 92%

Dew point: 45 °F

Location of Jastrzębie ZdrójLocation

Historic Weather in Jastrzębie Zdrój — Graph

°F

Jastrzębie Zdrój temperature yesterday

Maximum temperature yesterday: 58 °F (at 10:00 AM)
Minimum temperature yesterday: 48 °F (at 6:00 AM)
Average temperature yesterday: 54 °F

Past Weeks' High & Low Weather Summary

 TemperatureHumidityPressure
High64 °F (Mar 25, 12:00 PM)98% (Mar 15, 9:00 AM)30.60 "Hg (Mar 15, 9:00 AM)
Low26 °F (Mar 20, 6:00 AM)31% (Mar 18, 2:00 PM)29.75 "Hg (Mar 26, 3:00 AM)
Average42 °F70%30.21 "Hg
* Reported Mar 12 3:00 AM — Mar 27 3:00 AM, Jastrzębie Zdrój, Weather by CustomWeather, © 2015

Note: Actual official high and low records may vary slightly from our data, if they occured in-between our weather recording intervals... More about our weather records

Advertising

Jastrzębie Zdrój weather history for previous 24 hours

 ConditionsComfort  
Time TempWeatherWind HumidityBarometerVisibility
3:00 AM
Fri, Mar 27
47 °FLight rain. Overcast.N/A92%29.75 "Hg7 mi
2:00 AM49 °FOvercast.N/A88%29.75 "Hg7 mi
1:00 AM49 °FOvercast.1 mph93%29.76 "Hg7 mi
12:00 AM49 °FFog.N/A92%29.75 "Hg5 mi
11:00 PM
Thu, Mar 26
49 °FFog.N/A92%29.75 "Hg5 mi
9:00 PM51 °FOvercast.1 mph84%29.76 "Hg9 mi
8:00 PM53 °FPassing clouds.N/A80%29.76 "Hg11 mi
7:00 PM54 °FOvercast.N/A79%29.76 "Hg11 mi
6:00 PM55 °FOvercast.3 mph77%29.75 "Hg8 mi
5:00 PM57 °FOvercast.5 mph73%29.75 "Hg11 mi
4:00 PM58 °FSprinkles. Overcast.5 mph68%29.75 "Hg9 mi
3:00 PM58 °FOvercast.8 mph66%29.75 "Hg12 mi
2:00 PM57 °FOvercast.6 mph69%29.76 "Hg11 mi
1:00 PM56 °FOvercast.6 mph71%29.76 "Hg12 mi
12:00 PM56 °FOvercast.8 mph67%29.76 "Hg12 mi
11:00 AM57 °FOvercast.7 mph63%29.76 "Hg11 mi
10:00 AM58 °FOvercast.6 mph63%29.75 "Hg11 mi
9:00 AM56 °FPartly sunny.3 mph69%29.75 "Hg11 mi
8:00 AM52 °FOvercast.N/A80%29.76 "Hg9 mi
7:00 AM50 °FPartly sunny.1 mph86%29.75 "Hg11 mi
6:00 AM48 °FOvercast.3 mph88%29.75 "Hg9 mi
5:00 AM51 °FLight rain. Overcast.3 mph77%29.75 "Hg9 mi
4:00 AM53 °FOvercast.N/A64%29.75 "Hg12 mi
Weather by CustomWeather, © 2015

See weather overviewHow to use our weather pages